Craiova, Romania

7:27 AM EEST on May 25, 2017 (GMT +0300)
Craiova

Weather History for LRCV - October, 2013

Change the Weather History Date:

Thursday, October 24, 2013

  Actual Average Record
Temperature  
Mean Temperature 57 °F -  
Max Temperature 65 °F 52 °F - ()
Min Temperature 48 °F 37 °F - ()
Degree Days  
Heating Degree Days 8    
Growing Degree Days 7 (Base 50)    
Moisture  
Dew Point 50 °F    
Average Humidity 80    
Maximum Humidity 96    
Minimum Humidity 52    
Precipitation  
Precipitation 0.00 in 0.07 in - ()
Sea Level Pressure  
Sea Level Pressure 30.29 in    
Wind  
Wind Speed 7 mph ()    
Max Wind Speed 14 mph    
Max Gust Speed -    
Visibility 4.2 miles    
Events Fog    
T = Trace of Precipitation, MM = Missing Value Source: Averaged Metar Reports

Daily Weather History Graph

Daily Weather History Graph

Search for Another Location

Airport or City:

Trip Planner

Search our weather history database for the weather conditions in past years. The results will help you decide how hot, cold, wet, or windy it might be!

Date:

Astronomy

Oct. 24, 2013 Rise Set
Actual Time 7:50 AM EEST 6:25 PM EEST
Civil Twilight 7:21 AM EEST 6:55 PM EEST
Nautical Twilight 6:47 AM EEST 7:29 PM EEST
Astronomical Twilight 6:13 AM EEST 8:02 PM EEST
Moon 10:28 PM EEST (10/24) 12:43 PM EEST (10/24)
Length of Visible Light 11h 34m
Length of Day
10h 34m
Waning Gibbous, 74% of the Moon is Illuminated
Oct 24
Waning Gibbous
Oct 27
Last Quarter
Nov 3
New
Nov 10
First Quarter
Nov 17
Full

Hourly Weather History & Observations

Time (EEST) Temp. Dew Point Humidity Pressure Visibility Wind Dir Wind Speed Gust Speed Precip Events Conditions
12:00 AM 58 °F 51 °F 71% 30.30 in 6 mi NE 4.5 mph - -  
12:00 AM 57.2 °F 50.0 °F 77% 30.30 in 6.2 mi NE 11.5 mph - N/A   Unknown
1:00 AM 57 °F 51 °F 74% 30.30 in 6 mi NE 6.7 mph - -  
1:00 AM 57.2 °F 50.0 °F 77% 30.30 in 6.2 mi NE 11.5 mph - N/A   Unknown
2:00 AM 56 °F 51 °F 77% 30.30 in 6 mi NE 6.7 mph - -  
2:00 AM 55.4 °F 50.0 °F 82% 30.30 in 6.2 mi NE 11.5 mph - N/A   Unknown
3:00 AM 55 °F 51 °F 84% 30.30 in 6 mi NE 6.7 mph - -  
3:00 AM 53.6 °F 50.0 °F 88% 30.30 in 5.0 mi NE 11.5 mph - N/A   Unknown
4:00 AM 53 °F 51 °F 92% 30.30 in 6 mi NE 6.7 mph - -  
4:00 AM 53.6 °F 50.0 °F 88% 30.30 in 3.7 mi NE 11.5 mph - N/A   Unknown
5:00 AM 53 °F 51 °F 91% 30.30 in 6 mi ENE 8.9 mph - -  
5:00 AM 51.8 °F 50.0 °F 94% 30.30 in 3.1 mi ENE 9.2 mph - N/A   Mist
5:30 AM 51.8 °F 50.0 °F 94% 30.30 in 3.7 mi NE 13.8 mph - N/A   Unknown
6:00 AM 52 °F 51 °F 93% 30.31 in 6 mi ENE 8.9 mph - -  
6:00 AM 51.8 °F 48.2 °F 88% 30.30 in 3.7 mi NE 11.5 mph - N/A   Unknown
6:30 AM 51.8 °F 48.2 °F 88% 30.30 in 3.1 mi NE 11.5 mph - N/A   Mist
7:00 AM 51 °F 50 °F 94% 30.31 in 6 mi ENE 11.2 mph - -  
7:00 AM 50.0 °F 48.2 °F 94% 30.30 in 3.1 mi NE 13.8 mph - N/A   Mist
7:30 AM 50.0 °F 48.2 °F 94% 30.30 in 3.1 mi ENE 11.5 mph - N/A   Mist
8:00 AM 50 °F 49 °F 96% 30.31 in 2 mi ENE 8.9 mph - -   Mist
8:00 AM 50.0 °F 48.2 °F 94% 30.30 in 2.5 mi NE 11.5 mph - N/A   Mist
8:30 AM 50.0 °F 48.2 °F 94% 30.30 in 2.8 mi NE 9.2 mph - N/A   Mist
9:00 AM 50 °F 49 °F 95% 30.32 in 2 mi ENE 8.9 mph - -   Mist
9:00 AM 51.8 °F 48.2 °F 88% 30.30 in 2.8 mi NE 9.2 mph - N/A   Mist
9:30 AM 51.8 °F 50.0 °F 94% 30.30 in 3.1 mi ENE 9.2 mph - N/A   Mist
10:00 AM 53 °F 50 °F 86% 30.32 in 2 mi ENE 4.5 mph - -   Mist
10:00 AM 53.6 °F 50.0 °F 88% 30.30 in 4.3 mi ENE 9.2 mph - N/A   Unknown
10:30 AM 55.4 °F 50.0 °F 82% 30.33 in 5.0 mi ENE 6.9 mph - N/A   Unknown
11:00 AM 57 °F 51 °F 73% 30.33 in 2 mi East 4.5 mph - -   Mist
11:00 AM 55.4 °F 50.0 °F 82% 30.33 in 3.7 mi East 6.9 mph - N/A   Unknown
11:30 AM 53.6 °F 48.2 °F 82% 30.33 in 3.7 mi East 6.9 mph - N/A   Unknown
12:00 PM 55 °F 51 °F 80% 30.34 in 2 mi ENE 6.7 mph - -   Mist
12:00 PM 55.4 °F 50.0 °F 82% 30.33 in 4.3 mi ENE 6.9 mph - N/A   Unknown
12:30 PM 57.2 °F 50.0 °F 77% 30.33 in 5.0 mi East 9.2 mph - N/A   Unknown
1:00 PM 58 °F 52 °F 73% 30.33 in 2 mi East 8.9 mph - -   Mist
1:00 PM 57.2 °F 50.0 °F 77% 30.30 in 3.1 mi East 6.9 mph - N/A   Mist
1:30 PM 59.0 °F 50.0 °F 72% 30.30 in 3.7 mi East 6.9 mph - N/A   Unknown
2:00 PM 60 °F 52 °F 69% 30.31 in 6 mi East 6.7 mph - -  
2:00 PM 60.8 °F 50.0 °F 68% 30.30 in 4.3 mi East 6.9 mph - N/A   Unknown
2:30 PM 62.6 °F 50.0 °F 63% 30.27 in 5.0 mi East 6.9 mph - N/A   Unknown
3:00 PM 63 °F 52 °F 58% 30.29 in 6 mi East 6.7 mph - -  
3:00 PM 62.6 °F 50.0 °F 63% 30.27 in 5.0 mi East 6.9 mph - N/A   Unknown
3:30 PM 64.4 °F 50.0 °F 59% 30.27 in 5.0 mi East 6.9 mph - N/A   Unknown
4:00 PM 64 °F 51 °F 52% 30.28 in 6 mi ESE 6.7 mph - -  
4:00 PM 64.4 °F 50.0 °F 59% 30.27 in - East 4.6 mph - N/A   Clear
4:30 PM 64.4 °F 50.0 °F 59% 30.27 in - SE 4.6 mph - N/A   Clear
5:00 PM 64 °F 52 °F 55% 30.26 in 6 mi ESE 4.5 mph - -  
5:00 PM 64.4 °F 50.0 °F 59% 30.24 in 5.0 mi East 4.6 mph - N/A   Unknown
5:30 PM 62.6 °F 50.0 °F 63% 30.24 in 4.3 mi East 6.9 mph - N/A   Unknown
6:00 PM 63 °F 52 °F 59% 30.25 in 6 mi East 4.5 mph - -  
6:00 PM 62.6 °F 50.0 °F 63% 30.24 in 3.7 mi East 4.6 mph - N/A   Unknown
6:30 PM 59.0 °F 50.0 °F 72% 30.24 in - East 6.9 mph - N/A   Mist
7:00 PM 58 °F 52 °F 74% 30.26 in 6 mi East 6.7 mph - -   Scattered Clouds
7:00 PM 57.2 °F 50.0 °F 77% 30.24 in - East 6.9 mph - N/A   Unknown
7:30 PM 57.2 °F 50.0 °F 77% 30.24 in 3.1 mi East 6.9 mph - N/A   Unknown
8:00 PM 56 °F 52 °F 81% 30.26 in 6 mi East 6.7 mph - -  
8:00 PM 55.4 °F 50.0 °F 82% 30.24 in 0.5 mi East 4.6 mph - N/A Fog Fog
8:30 PM 53.6 °F 50.0 °F 88% 30.24 in 3.7 mi ESE 2.3 mph - N/A   Unknown
9:00 PM 54 °F 51 °F 88% 30.27 in 6 mi East 4.5 mph - -  
9:00 PM 53.6 °F 50.0 °F 88% 30.24 in 3.7 mi Calm Calm - N/A   Unknown
9:30 PM 53.6 °F 50.0 °F 88% 30.27 in 0.1 mi East 2.3 mph - N/A Fog Fog
10:00 PM 56 °F 53 °F 84% 30.27 in 6 mi ESE 2.2 mph - -  
10:00 PM 51.8 °F 48.2 °F 88% 30.27 in 3.1 mi NE 2.3 mph - N/A   Unknown
10:30 PM 50.0 °F 48.2 °F 94% 30.27 in 3.1 mi NNE 2.3 mph - N/A   Unknown
11:00 PM 54 °F 52 °F 90% 30.27 in 6 mi NE 2.2 mph - -  
11:00 PM 50.0 °F 48.2 °F 94% 30.24 in 1.9 mi NNE 2.3 mph - N/A   Mist
11:30 PM 48.2 °F 46.4 °F 93% 30.24 in 1.6 mi North 4.6 mph - N/A   Mist